This demonstration page uses our WeatherBlox Daily Observations layout. Learn more.

Hourly Observations for December 5, 2018

Temp ( °F °C ) Dew Point ( °F °C ) Humidity (%) Winds ( mph kmh ) Pressure ( in mb ) Visibility ( mi km ) Precip ( " mm )
12:15 am 00:15 Clear 22 -5.6 18 -7.9 84 84 W 9 15 30.36 1028 10 16.0934 0 0
12:35 am 00:35 Clear 22 -5.5 18 -7.7 85 85 W 10 17 30.36 1028 10 16.0934 0 0
12:55 am 00:55 Clear 22 -5.7 18 -7.7 86 86 W 10 17 30.33 1027 10 16.0934 0 0
1:15 am 01:15 Clear 22 -5.4 18 -7.6 85 85 W 10 17 30.33 1027 10 16.0934 0 0
1:35 am 01:35 Clear 22 -5.4 18 -7.6 85 85 W 10 17 30.33 1027 10 16.0934 0 0
1:55 am 01:55 Clear 22 -5.4 18 -7.6 85 85 W 10 17 30.33 1027 10 16.0934 0 0
2:15 am 02:15 Clear 22 -5.6 18 -8 83 83 W 8 13 30.33 1027 10 16.0934 0 0
2:35 am 02:35 Clear 21 -6.1 17 -8.1 86 86 WSW 8 13 30.33 1027 10 16.0934 0 0
2:55 am 02:55 Clear 21 -6 18 -8 86 86 W 8 13 30.33 1027 10 16.0934 0 0
3:15 am 03:15 Clear 21 -5.9 17 -8.1 85 85 W 8 13 30.33 1027 10 16.0934 0 0
3:35 am 03:35 Clear 22 -5.7 17 -8.3 82 82 W 9 15 30.33 1027 10 16.0934 0 0
3:55 am 03:55 Clear 20 -6.4 16 -8.9 83 83 W 7 11 30.33 1027 10 16.0934 0 0
4:15 am 04:15 Clear 19 -7.2 16 -9.1 86 86 WSW 8 13 30.33 1027 10 16.0934 0 0
4:35 am 04:35 Clear 19 -7 16 -9 86 86 WSW 9 15 30.3 1026 10 16.0934 0 0
4:55 am 04:55 Clear 20 -6.4 15 -9.3 80 80 W 9 15 30.3 1026 10 16.0934 0 0
5:15 am 05:15 Clear 19 -7.2 14 -9.9 81 81 W 9 15 30.3 1026 10 16.0934 0 0
5:35 am 05:35 Clear 18 -7.9 13 -10.4 82 82 WSW 6 9 30.3 1026 10 16.0934 0 0
5:55 am 05:55 Clear 18 -7.8 13 -10.5 81 81 W 7 11 30.3 1026 10 16.0934 0 0
6:15 am 06:15 Clear 18 -7.6 13 -10.5 80 80 W 9 15 30.3 1026 10 16.0934 0 0
6:35 am 06:35 Clear 17 -8.4 12 -11 82 82 W 7 11 30.33 1027 10 16.0934 0 0
6:55 am 06:55 Clear 17 -8.2 12 -11 80 80 W 7 11 30.3 1026 10 16.0934 0 0
7:15 am 07:15 Clear 17 -8.1 12 -10.9 81 81 W 5 7 30.3 1026 10 16.0934 0 0
7:35 am 07:35 Clear 18 -7.6 13 -10.5 80 80 Calm 30.3 1026 10 16.0934 0 0
7:55 am 07:55 Sunny 20 -6.9 14 -10.2 78 78 WSW 3 6 30.3 1026 10 16.0934 0 0
8:15 am 08:15 Sunny 20 -6.6 14 -10 77 77 WSW 5 7 30.3 1026 10 16.0934 0 0
8:35 am 08:35 Sunny 21 -6.1 15 -9.5 77 77 WSW 6 9 30.3 1026 10 16.0934 0 0
8:55 am 08:55 Sunny 22 -5.4 15 -9.2 75 75 WSW 6 9 30.3 1026 10 16.0934 0 0
9:15 am 09:15 Sunny 24 -4.4 16 -8.7 72 72 W 5 7 30.27 1025 10 16.0934 0 0
9:35 am 09:35 Sunny 25 -3.7 17 -8.5 70 70 SW 8 13 30.27 1025 10 16.0934 0 0
9:55 am 09:55 Sunny 27 -2.6 18 -7.9 67 67 SW 9 15 30.27 1025 10 16.0934 0 0
10:15 am 10:15 Sunny 29 -1.5 19 -7.3 65 65 WSW 7 11 30.24 1024 10 16.0934 0 0
10:35 am 10:35 Sunny 29 -1.5 19 -7.3 65 65 SW 8 13 30.24 1024 10 16.0934 0 0
10:55 am 10:55 Sunny 30 -1.2 19 -7.4 63 63 WSW 8 13 30.21 1023 10 16.0934 0 0
11:15 am 11:15 Sunny 31 -0.7 19 -7.2 62 62 WSW 7 11 30.21 1023 10 16.0934 0 0
11:35 am 11:35 Sunny 30 -1.2 20 -6.8 66 66 W 6 9 30.21 1023 10 16.0934 0 0
11:55 am 11:55 Sunny 31 -0.5 19 -7 62 62 WNW 5 7 30.21 1023 10 16.0934 0 0
12:15 pm 12:15 Sunny 32 -0.2 20 -6.7 62 62 W 3 6 30.18 1022 10 16.0934 0 0
12:35 pm 12:35 Sunny 31 -0.4 20 -6.6 63 63 WNW 5 7 30.18 1022 10 16.0934 0 0
12:55 pm 12:55 Sunny 30 -1 21 -6.1 69 69 WNW 6 9 30.18 1022 10 16.0934 0 0
1:15 pm 13:15 Sunny 31 -0.6 21 -6.2 66 66 WNW 5 7 30.18 1022 10 16.0934 0 0
1:35 pm 13:35 Sunny 31 -0.8 22 -5.6 70 70 W 3 6 30.18 1022 10 16.0934 0 0
1:55 pm 13:55 Sunny 31 -0.5 22 -5.3 70 70 Calm 30.15 1021 10 16.0934 0 0
2:15 pm 14:15 Sunny 32 0 24 -4.6 71 71 Calm 30.12 1020 10 16.0934 0 0
2:35 pm 14:35 Sunny 33 0.3 22 -5.6 65 65 W 6 9 30.12 1020 10 16.0934 0 0
2:55 pm 14:55 Sunny 33 0.3 23 -4.9 68 68 NW 3 6 30.12 1020 10 16.0934 0 0
3:15 pm 15:15 Sunny 32 0 25 -4.1 74 74 NNW 3 6 30.12 1020 10 16.0934 0 0
3:35 pm 15:35 Sunny 33 0.6 23 -4.9 67 67 NNW 6 9 30.12 1020 10 16.0934 0 0
3:55 pm 15:55 Sunny 32 0.1 24 -4.7 70 70 N 3 6 30.12 1020 10 16.0934 0 0
4:15 pm 16:15 Sunny 32 0 24 -4.5 72 72 N 5 7 30.12 1020 10 16.0934 0 0
4:35 pm 16:35 Sunny 32 -0.1 24 -4.3 74 74 NNW 3 6 30.12 1020 10 16.0934 0 0
4:55 pm 16:55 Sunny 31 -0.5 25 -3.7 79 79 Calm 30.15 1021 10 16.0934 0 0
5:15 pm 17:15 Clear 30 -1.2 25 -4 82 82 Calm 30.18 1022 10 16.0934 0 0
5:35 pm 17:35 Clear 28 -2.1 24 -4.6 83 83 N 5 7 30.18 1022 10 16.0934 0 0
5:55 pm 17:55 Clear 28 -2.4 23 -4.9 83 83 N 3 6 30.18 1022 10 16.0934 0 0
6:15 pm 18:15 Clear 28 -2 23 -4.8 81 81 Calm 30.21 1023 10 16.0934 0 0
6:35 pm 18:35 Clear 29 -1.8 22 -5.5 76 76 N 3 6 30.21 1023 10 16.0934 0 0
6:55 pm 18:55 Clear 28 -2.5 22 -5.4 81 81 NNW 3 6 30.21 1023 10 16.0934 0 0
7:15 pm 19:15 Clear 28 -2.4 22 -5.5 80 80 N 5 7 30.21 1023 10 16.0934 0 0
7:35 pm 19:35 Clear 28 -2 22 -5.6 77 77 N 8 13 30.21 1023 10 16.0934 0 0
7:55 pm 19:55 Clear 28 -2.1 22 -5.7 77 77 N 8 13 30.24 1024 10 16.0934 0 0
8:15 pm 20:15 Clear 28 -2.2 22 -5.7 77 77 N 8 13 30.24 1024 10 16.0934 0 0
8:35 pm 20:35 Clear 28 -2.4 22 -5.6 79 79 N 9 15 30.27 1025 10 16.0934 0 0
8:55 pm 20:55 Partly Cloudy 28 -2.3 22 -5.6 78 78 N 10 17 30.24 1024 10 16.0934 0 0
9:15 pm 21:15 Mostly Cloudy 28 -2 22 -5.7 76 76 N 10 17 30.24 1024 10 16.0934 0 0
9:35 pm 21:35 Clear 28 -2 22 -5.6 77 77 N 15 24 30.24 1024 10 16.0934 0 0
9:55 pm 21:55 Clear 28 -2 22 -5.5 77 77 N 15 24 30.24 1024 10 16.0934 0 0
10:15 pm 22:15 Clear 28 -2.1 23 -5.2 80 80 N 15 24 30.24 1024 10 16.0934 0 0
10:35 pm 22:35 Clear 28 -2.3 23 -5.1 81 81 N 15 24 30.24 1024 10 16.0934 0 0
10:55 pm 22:55 Clear 28 -2.2 23 -4.9 82 82 N 17 28 30.24 1024 10 16.0934 0 0
11:15 pm 23:15 Clear 28 -2.2 24 -4.6 84 84 N 15 24 30.24 1024 10 16.0934 0 0
11:35 pm 23:35 Partly Cloudy 28 -2.2 24 -4.4 85 85 NNE 15 24 30.3 1026 10 16.0934 0 0
11:55 pm 23:55 Cloudy 28 -2 25 -4 86 86 NNE 17 28 30.27 1025 10 16.0934 0 0

Powered by AerisWeather